Zurück zum Katalog

STARLINK-32896

AktivKommunikationVLEO
NORAD 62959·PAYLOAD·🇺🇸 United States

Gestartet Feb 11, 2025 von Vandenberg Space Force Base

Loading…

Nächste Überflüge (nächste 24 Stunden)

TLE

AktuellSource: CelesTrak SupGP

Epoche: Sep 14, 2026, 21:15 UTC

1 62959C 25029M   26257.88590278  .00000712  00000+0  21030-4 0  2574
2 62959  53.1590  72.2995 0001262  83.5563 273.5273 15.34378269    19

Verfolge STARLINK-32896 in Echtzeit mit AllMySat

Download on the App Store